Farmington, NM

9:18 PM MST on December 06, 2019 (GMT -0700)
Four Corners Regional

Weather History for KFMN - November, 2019

Change the Weather History Date:

Tuesday, November 19, 2019

  Actual Average Record
Temperature  
Mean Temperature 47 °F -  
Max Temperature 66 °F 49 °F 71 °F (2007)
Min Temperature 28 °F 25 °F 8 °F (1985)
Degree Days  
Heating Degree Days 18    
Moisture  
Dew Point 22 °F    
Average Humidity 40    
Maximum Humidity 58    
Minimum Humidity 20    
Precipitation  
Precipitation 0.00 in - - ()
Sea Level Pressure  
Sea Level Pressure 29.91 in    
Wind  
Wind Speed 7 mph ()    
Max Wind Speed 12 mph    
Max Gust Speed -    
Visibility 10.0 miles    
Events Rain    
Averages and records for this station are not official NWS values.
T = Trace of Precipitation, MM = Missing Value Source: Averaged Metar Reports

Daily Weather History Graph

Daily Weather History Graph

Search for Another Location

Airport or City:

Astronomy

Nov. 19, 2019 Rise Set
Actual Time 6:54 AM MST 5:01 PM MST
Civil Twilight 6:27 AM MST 5:29 PM MST
Nautical Twilight 5:55 AM MST 6:00 PM MST
Astronomical Twilight 5:24 AM MST 6:31 PM MST
Moon 11:58 PM MST (11/19) 1:08 PM MST (11/19)
Length of Visible Light 11h 02m
Length of Day
10h 06m
Waning Gibbous, 51% of the Moon is Illuminated
Nov 19
Waning Gibbous
Nov 19
Last Quarter
Nov 26
New
Dec 3
First Quarter
Dec 11
Full

Hourly Weather History & Observations

Time (MST) Temp. Windchill Dew Point Humidity Pressure Visibility Wind Dir Wind Speed Gust Speed Precip Events Conditions
12:53 AM 30.9 °F 23.5 °F 16.0 °F 54% 30.04 in 10.0 mi East 8.1 mph - N/A   Clear
1:53 AM 28.0 °F 21.7 °F 14.0 °F 56% 30.05 in 10.0 mi ENE 5.8 mph - N/A   Clear
3:53 AM 30.9 °F 21.7 °F 17.1 °F 57% 30.02 in 10.0 mi East 11.5 mph - N/A   Clear
4:53 AM 28.9 °F 20.4 °F 16.0 °F 58% 30.03 in 10.0 mi East 9.2 mph - N/A   Clear
5:53 AM 30.9 °F 22.2 °F 17.1 °F 57% 30.02 in 10.0 mi East 10.4 mph - N/A   Clear
6:53 AM 30.9 °F 22.2 °F 17.1 °F 57% 30.04 in 10.0 mi ESE 10.4 mph - N/A   Clear
7:53 AM 33.1 °F 24.4 °F 18.0 °F 54% 30.06 in 10.0 mi East 11.5 mph - N/A   Clear
8:53 AM 37.0 °F 29.3 °F 19.0 °F 48% 30.06 in 10.0 mi ESE 11.5 mph - N/A   Clear
9:53 AM 46.0 °F 41.9 °F 19.9 °F 35% 30.04 in 10.0 mi East 8.1 mph - N/A   Clear
10:53 AM 52.0 °F - 21.0 °F 30% 30.01 in 10.0 mi East 8.1 mph - N/A   Clear
11:53 AM 57.9 °F - 21.9 °F 25% 29.93 in 10.0 mi East 9.2 mph - N/A   Clear
12:53 PM 62.1 °F - 21.9 °F 21% 29.90 in 10.0 mi East 5.8 mph - N/A   Clear
1:53 PM 64.0 °F - 21.9 °F 20% 29.86 in 10.0 mi ESE 4.6 mph - N/A   Clear
2:53 PM 66.0 °F - 23.0 °F 20% 29.81 in 10.0 mi Calm Calm - N/A   Clear
3:53 PM 64.0 °F - 25.0 °F 23% 29.81 in 10.0 mi South 3.5 mph - N/A   Clear
4:53 PM 60.1 °F - 21.9 °F 23% 29.81 in 10.0 mi ESE 5.8 mph - N/A   Clear
6:53 PM 55.9 °F - 23.0 °F 28% 29.80 in 10.0 mi East 5.8 mph - N/A   Overcast
7:53 PM 55.9 °F - 23.0 °F 28% 29.80 in 10.0 mi WNW 8.1 mph - N/A   Overcast
8:53 PM 54.0 °F - 30.9 °F 41% 29.79 in 10.0 mi SSW 5.8 mph - N/A   Overcast
9:53 PM 51.1 °F - 30.9 °F 46% 29.75 in 10.0 mi WSW 4.6 mph - N/A   Partly Cloudy
10:53 PM 50.0 °F - 28.9 °F 44% 29.73 in 10.0 mi Calm Calm - N/A   Mostly Cloudy
11:53 PM 50.0 °F - 34.0 °F 54% 29.70 in 10.0 mi ESE 10.4 mph - 0.00 in Rain Light Rain